Weather History for Kremmling, CO

Change the Weather History Date:

Wednesday, May 9, 2012

  Actual Average (KEGE) Record (KEGE)
Temperature  
Mean Temperature 48 °F -  
Max Temperature 73 °F 66 °F 83 °F (1989)
Min Temperature 23 °F 32 °F 16 °F (1950)
Degree Days  
Heating Degree Days 17    
Moisture  
Dew Point 11 °F    
Average Humidity 31    
Maximum Humidity 69    
Minimum Humidity 6    
Precipitation  
Precipitation 0.00 in - - ()
Sea Level Pressure  
Sea Level Pressure 30.19 in    
Wind  
Wind Speed 2 mph (North)    
Max Wind Speed 12 mph    
Max Gust Speed 17 mph    
Visibility 10 miles    
Events      
Averages and records for this station are not official NWS values.
T = Trace of Precipitation, MM = Missing Value Source: NWS Daily Summary

Daily Weather History Graph

Daily Weather History Graph

Search for Another Location

Airport:

Trip Planner

Search our weather history database for the weather conditions in past years. The results will help you decide how hot, cold, wet, or windy it might be!

Date:

Astronomy

May. 09, 2012 Rise Set
Actual Time 5:55 AM MDT 8:08 PM MDT
Civil Twilight 5:25 AM MDT 8:39 PM MDT
Nautical Twilight 4:48 AM MDT 9:16 PM MDT
Astronomical Twilight 4:07 AM MDT 9:57 PM MDT
Moon No Moon Rise 9:13 AM MDT (5/9)
Length of Visible Light 15h 13m
Length of Day
14h 13m
Waning Gibbous, 82% of the Moon is Illuminated
May 9
Waning Gibbous
May 12
Last Quarter
May 20
New
May 28
First Quarter
Jun 4
Full

Hourly Weather History & Observations

Time (MDT) Temp. Windchill Dew Point Humidity Pressure Visibility Wind Dir Wind Speed Gust Speed Precip Events Conditions
12:13 AM 37.4 °F - 19.4 °F 48% 30.25 in 10.0 mi Calm Calm - N/A   Clear
12:33 AM 35.6 °F - 19.4 °F 52% 30.25 in 10.0 mi Calm Calm - N/A   Clear
12:53 AM 33.8 °F - 19.4 °F 56% 30.25 in 10.0 mi Calm Calm - N/A   Clear
1:12 AM 33.8 °F - 17.6 °F 52% 30.26 in 10.0 mi Calm Calm - N/A   Clear
1:32 AM 32.0 °F - 17.6 °F 55% 30.26 in 10.0 mi Calm Calm - N/A   Clear
1:53 AM 32.0 °F - 17.6 °F 55% 30.26 in 10.0 mi Calm Calm - N/A   Clear
2:13 AM 30.2 °F - 14.0 °F 51% 30.27 in 10.0 mi Calm Calm - N/A   Clear
2:33 AM 30.2 °F - 14.0 °F 51% 30.26 in 10.0 mi Calm Calm - N/A   Clear
2:53 AM 30.2 °F - 17.6 °F 60% 30.26 in 10.0 mi Calm Calm - N/A   Clear
3:13 AM 30.2 °F - 15.8 °F 55% 30.27 in 10.0 mi Calm Calm - N/A   Clear
3:32 AM 30.2 °F - 17.6 °F 60% 30.27 in 10.0 mi Calm Calm - N/A   Clear
3:52 AM 30.2 °F - 17.6 °F 60% 30.27 in 10.0 mi Calm Calm - N/A   Clear
4:13 AM 28.4 °F - 14.0 °F 55% 30.27 in 10.0 mi Calm Calm - N/A   Clear
4:33 AM 26.6 °F - 12.2 °F 55% 30.28 in 10.0 mi Calm Calm - N/A   Clear
4:53 AM 28.4 °F - 17.6 °F 64% 30.28 in 10.0 mi Calm Calm - N/A   Clear
5:13 AM 26.6 °F - 17.6 °F 69% 30.28 in 10.0 mi Calm Calm - N/A   Clear
5:33 AM 24.8 °F - 12.2 °F 59% 30.28 in 10.0 mi Calm Calm - N/A   Clear
5:53 AM 23.0 °F - 14.0 °F 68% 30.29 in 10.0 mi Calm Calm - N/A   Clear
6:13 AM 24.8 °F - 14.0 °F 64% 30.30 in 10.0 mi Calm Calm - N/A   Clear
6:33 AM 24.8 °F - 12.2 °F 59% 30.30 in 10.0 mi Calm Calm - N/A   Clear
6:53 AM 28.4 °F - 17.6 °F 64% 30.30 in 10.0 mi Calm Calm - N/A   Clear
7:13 AM 30.2 °F - 19.4 °F 64% 30.30 in 10.0 mi Calm Calm - N/A   Clear
7:33 AM 32.0 °F - 19.4 °F 60% 30.31 in 10.0 mi Calm Calm - N/A   Clear
7:53 AM 33.8 °F - 19.4 °F 56% 30.31 in 10.0 mi Calm Calm - N/A   Clear
8:13 AM 35.6 °F - 19.4 °F 52% 30.31 in 10.0 mi Calm Calm - N/A   Clear
8:33 AM 37.4 °F - 17.6 °F 45% 30.30 in 10.0 mi Calm Calm - N/A   Clear
8:53 AM 41.0 °F - 17.6 °F 39% 30.30 in 10.0 mi Calm Calm - N/A   Clear
9:13 AM 42.8 °F - 17.6 °F 36% 30.29 in 10.0 mi Calm Calm - N/A   Clear
9:33 AM 46.4 °F - 17.6 °F 32% 30.28 in 10.0 mi Calm Calm - N/A   Clear
9:53 AM 50.0 °F - 17.6 °F 28% 30.27 in 10.0 mi Calm Calm - N/A   Clear
10:13 AM 50.0 °F - 17.6 °F 28% 30.26 in 10.0 mi ENE 3.5 mph - N/A   Clear
10:33 AM 53.6 °F - 17.6 °F 24% 30.25 in 10.0 mi Calm Calm - N/A   Clear
10:53 AM 55.4 °F - 17.6 °F 23% 30.24 in 10.0 mi Calm Calm - N/A   Clear
11:13 AM 59.0 °F - 17.6 °F 20% 30.23 in 10.0 mi Calm Calm - N/A   Clear
11:33 AM 60.8 °F - 14.0 °F 16% 30.22 in 10.0 mi ENE 4.6 mph - N/A   Clear
11:53 AM 62.6 °F - 1.4 °F 9% 30.21 in 10.0 mi ENE 4.6 mph - N/A   Clear
12:13 PM 64.4 °F - 5.0 °F 10% 30.20 in 10.0 mi North 5.8 mph - N/A   Clear
12:33 PM 64.4 °F - 5.0 °F 10% 30.19 in 10.0 mi North 3.5 mph - N/A   Clear
12:53 PM 64.4 °F - 5.0 °F 10% 30.17 in 10.0 mi Calm Calm - N/A   Clear
1:13 PM 68.0 °F - 5.0 °F 8% 30.16 in 10.0 mi South 4.6 mph - N/A   Clear
1:33 PM 69.8 °F - 5.0 °F 8% 30.16 in 10.0 mi NW 3.5 mph - N/A   Clear
2:13 PM 69.8 °F - 1.4 °F 7% 30.14 in 10.0 mi East 5.8 mph - N/A   Clear
2:33 PM 69.8 °F - 1.4 °F 7% 30.13 in 10.0 mi WNW 6.9 mph - N/A   Clear
2:53 PM 71.6 °F - 1.4 °F 6% 30.12 in 10.0 mi NNE 4.6 mph - N/A   Clear
3:13 PM 71.6 °F - -0.4 °F 6% 30.11 in 10.0 mi NW 6.9 mph - N/A   Clear
3:33 PM 71.6 °F - -0.4 °F 6% 30.10 in 10.0 mi NNW 9.2 mph - N/A   Clear
3:53 PM 71.6 °F - 1.4 °F 6% 30.09 in 10.0 mi NNE 8.1 mph - N/A   Clear
4:13 PM 73.4 °F - 1.4 °F 6% 30.09 in 10.0 mi WSW 3.5 mph - N/A   Clear
4:32 PM 71.6 °F - 3.2 °F 7% 30.08 in 10.0 mi East 4.6 mph - N/A   Clear
4:53 PM 71.6 °F - -0.4 °F 6% 30.08 in 10.0 mi WNW 3.5 mph - N/A   Clear
5:13 PM 69.8 °F - 5.0 °F 8% 30.08 in 10.0 mi NNW 4.6 mph - N/A   Clear
5:33 PM 66.2 °F - 5.0 °F 9% 30.08 in 10.0 mi NNW 9.2 mph - N/A   Scattered Clouds
5:53 PM 66.2 °F - 8.6 °F 11% 30.08 in 10.0 mi North 6.9 mph - N/A   Mostly Cloudy
6:13 PM 66.2 °F - 3.2 °F 8% 30.07 in 10.0 mi North 10.4 mph - N/A   Scattered Clouds
6:33 PM 66.2 °F - 3.2 °F 8% 30.07 in 10.0 mi North 11.5 mph 17.3 mph N/A   Scattered Clouds
6:53 PM 68.0 °F - 3.2 °F 8% 30.07 in 10.0 mi NNE 11.5 mph - N/A   Clear
7:13 PM 68.0 °F - 5.0 °F 8% 30.07 in 10.0 mi NNW 11.5 mph - N/A   Clear
7:33 PM 66.2 °F - 3.2 °F 8% 30.07 in 10.0 mi North 8.1 mph - N/A   Clear
7:52 PM 62.6 °F - 3.2 °F 9% 30.07 in 10.0 mi NNW 10.4 mph 16.1 mph N/A   Clear
8:12 PM 60.8 °F - 5.0 °F 11% 30.08 in 10.0 mi NNW 5.8 mph - N/A   Clear
8:33 PM 59.0 °F - 6.8 °F 13% 30.08 in 10.0 mi NNW 8.1 mph - N/A   Clear
8:53 PM 59.0 °F - 8.6 °F 14% 30.08 in 10.0 mi NNW 5.8 mph - N/A   Clear
9:33 PM 53.6 °F - 10.4 °F 18% 30.10 in 10.0 mi Calm Calm - N/A   Clear
9:53 PM 50.0 °F - 12.2 °F 22% 30.11 in 10.0 mi SSW 4.6 mph - N/A   Clear
10:13 PM 50.0 °F - 14.0 °F 24% 30.11 in 10.0 mi Calm Calm - N/A   Clear
10:33 PM 46.4 °F 45.2 °F 15.8 °F 29% 30.11 in 10.0 mi South 3.5 mph - N/A   Clear
11:13 PM 41.0 °F - 14.0 °F 33% 30.11 in 10.0 mi Calm Calm - N/A   Clear
11:33 PM 41.0 °F - 14.0 °F 33% 30.11 in 10.0 mi Calm Calm - N/A   Clear
11:52 PM 41.0 °F - 15.8 °F 36% 30.11 in 10.0 mi Calm Calm - N/A   Clear